Temperature
8 7 6 7 7 8 8 8 8 8 8 9 8 8 8 9 9 9 9 10 10 11 11 11 11 11 11 11 11 11 11 11 11 10 11 10 10 10 10 10 10 10 10 10
7 7 7 7 8 8 8 8 8 8 8 9 8 8 8 8 8 9 9 10 10 11 11 11 11 11 11 11 11 11 11 10 10 10 10 10 10 10 10 10 9 9 9 9
7 7 7 8 8 8 8 8 8 8 8 8 9 9 9 9 9 9 9 10 10 10 11 11 11 11 11 11 11 11 10 10 10 10 10 10 10 9 9 9 9 9 9 9
6 7 7 7 7 8 8 8 8 8 8 7 8 8 9 8 8 8 9 9 10 10 10 11 11 11 11 11 10 10 10 10 10 9 9 9 9 9 9 9 9 9 8 8
6 6 7 7 7 7 7 7 7 7 7 7 7 7 7 8 9 9 8 9 10 10 10 10 10 10 10 10 10 10 10 9 9 9 9 9 9 9 9 8 8 8 8 8
6 7 7 7 7 7 7 7 6 5 6 8 8 7 8 7 8 8 8 9 10 10 10 10 10 10 10 10 10 10 9 9 9 9 9 9 8 8 8 8 8 8 8 8
7 7 7 7 7 7 7 7 7 7 6 7 7 7 7 7 8 8 8 9 10 10 10 10 10 10 10 10 10 9 9 9 9 9 8 8 8 8 8 8 8 8 8 8
7 7 6 6 7 7 7 7 7 9 8 7 6 6 7 8 7 8 8 9 9 10 10 10 10 9 9 9 9 9 9 9 9 8 8 8 8 8 8 8 7 7 7 7
7 6 6 7 7 7 7 6 6 5 6 6 6 6 7 7 7 7 8 8 9 9 9 9 9 9 9 9 9 9 9 9 8 8 8 8 8 7 7 7 7 7 7 7
7 6 6 6 7 6 7 5 4 6 8 8 8 7 7 8 7 7 7 8 9 9 9 9 9 9 9 9 8 8 8 8 8 8 8 7 7 7 7 7 7 6 6 6
6 6 6 6 6 6 6 6 5 4 5 7 7 8 7 7 6 6 6 8 9 9 9 9 9 8 8 8 8 8 8 8 7 7 7 7 7 7 6 6 6 6 6 6
5 4 5 6 6 6 6 6 5 6 6 4 5 6 7 6 6 6 7 8 9 9 9 8 8 8 8 8 8 8 7 7 7 7 7 7 6 6 6 6 6 6 6 6
5 5 6 7 6 5 6 5 5 4 4 3 4 7 6 6 6 7 7 8 8 8 8 8 8 8 8 7 7 7 7 7 7 6 6 6 6 6 6 6 6 5 5 5
5 5 5 7 7 5 5 5 4 4 4 4 4 6 6 6 6 6 7 8 8 8 8 8 8 7 7 7 7 7 7 6 6 6 6 6 6 6 5 5 5 5 5 5
5 5 4 4 4 4 5 5 4 4 4 5 5 4 6 6 5 7 7 8 8 8 8 8 7 7 7 7 7 6 6 6 6 6 5 5 5 5 5 5 5 5 4 4
3 4 4 4 4 4 4 4 4 4 4 4 5 5 5 6 7 7 7 7 7 8 8 7 7 7 7 6 6 6 6 5 5 5 5 5 5 5 5 4 4 4 4 4
3 3 4 4 3 4 5 5 4 4 4 4 5 6 5 5 5 6 7 7 7 7 7 7 7 7 6 6 6 5 5 5 5 5 5 4 4 4 4 4 4 4 4 3
2 3 3 3 4 5 7 6 5 4 4 4 5 5 5 5 6 7 7 7 7 7 7 7 6 6 6 6 5 5 5 4 4 4 4 4 4 4 4 4 4 3 3 3
2 3 3 3 3 4 5 5 4 4 5 4 4 5 5 5 5 6 7 7 7 7 6 6 6 6 5 5 5 5 4 4 4 4 4 4 4 4 3 3 3 3 3 3
1 2 3 3 4 5 7 6 6 5 6 6 4 4 4 4 4 5 7 7 6 6 6 6 5 5 5 5 4 4 4 4 4 4 3 3 3 3 3 3 3 2 2 2
2 2 2 3 3 4 5 5 6 6 7 6 6 5 5 4 5 7 6 6 6 6 5 5 5 5 4 4 4 4 4 4 3 3 3 3 3 3 2 2 2 2 2 2
2 1 2 2 3 4 5 4 5 6 7 7 6 6 6 6 6 6 6 5 5 5 5 5 4 4 4 4 3 3 3 3 3 3 3 3 2 2 2 2 2 1 1 1
1 3 3 3 5 5 5 6 7 7 7 7 7 6 6 6 6 5 5 5 5 4 4 4 4 4 4 3 3 3 3 3 3 2 2 2 2 2 2 1 1 1 1 1
1 1 1 1 2 4 5 6 6 6 6 6 6 6 6 5 5 5 4 4 4 4 4 3 3 3 3 3 3 3 2 2 2 2 2 2 2 1 1 1 1 0 0 -0
2 0 1 1 2 4 5 6 7 6 6 6 6 5 5 5 4 4 4 4 4 3 3 3 3 3 3 2 2 2 2 2 2 1 1 1 1 1 1 0 0 -0 -0 -1
1 1 2 4 4 4 6 7 6 6 6 6 5 5 5 4 4 4 3 3 3 3 3 3 2 2 2 2 2 2 1 1 1 1 1 1 0 0 0 -0 -0 -0 -1 -1
Wind_Speed
4 6 3 1 1 3 4 4 2 2 3 2 0 3 6 2 2 4 4 4 4 5 3 2 2 3 3 2 2 2 2 2 2 1 1 1 0 1 1 2 3 3 3 3
6 5 3 1 3 5 4 4 2 2 3 2 2 5 5 3 4 5 5 5 5 3 2 2 2 2 3 3 3 2 3 2 2 2 2 1 1 0 1 1 2 3 3 3
5 2 3 3 5 5 4 2 1 0 3 4 3 6 4 2 1 2 3 3 3 5 5 4 3 3 3 3 3 3 3 3 3 3 2 1 1 1 1 1 1 2 2 2
4 4 3 5 4 3 1 2 1 1 3 3 3 2 6 3 4 3 3 2 3 4 4 4 4 3 4 4 3 2 2 2 2 3 3 3 2 2 2 2 1 2 2 1
3 4 4 4 2 1 2 1 2 2 2 2 3 1 7 3 3 4 3 2 2 3 3 3 3 3 3 2 2 2 2 2 2 3 4 3 3 3 2 2 2 2 2 2
1 2 2 0 1 1 2 3 4 4 4 1 2 3 6 4 4 3 2 2 1 1 1 1 0 1 1 0 0 1 2 3 2 3 3 4 5 4 3 3 3 3 2 2
5 4 4 2 3 4 4 4 4 5 4 4 1 2 8 6 5 4 4 3 2 2 2 1 1 1 0 0 1 1 1 3 2 2 4 5 5 5 5 5 4 3 2 2
2 3 4 3 1 1 1 3 4 3 4 4 2 5 7 4 3 2 2 2 1 1 1 1 1 1 1 1 1 1 1 2 2 2 3 3 4 3 4 4 4 4 4 4
3 2 3 2 1 2 3 2 2 4 1 2 5 7 7 1 1 1 2 2 2 1 1 0 1 0 0 1 1 1 1 2 2 2 2 3 3 4 4 4 4 4 4 4
3 1 3 4 2 3 2 5 4 3 2 3 6 5 5 4 4 2 2 3 2 1 0 1 1 1 1 1 1 1 1 1 2 2 2 2 3 3 4 3 4 4 4 3
2 2 3 3 1 2 2 3 3 3 3 3 4 7 5 6 5 5 5 4 4 3 2 1 0 1 1 1 1 1 2 2 2 2 2 2 3 2 3 3 4 4 4 4
2 3 1 4 2 1 2 3 5 3 3 3 3 7 4 4 5 5 5 4 3 2 2 1 0 1 2 2 2 2 2 3 3 2 2 2 3 2 3 4 4 4 4 4
3 3 2 4 3 1 1 3 3 4 3 4 4 7 4 2 1 2 4 4 3 2 2 1 0 1 1 2 3 3 3 3 3 2 2 2 3 3 3 4 4 4 4 4
4 3 5 6 4 3 4 4 5 5 4 5 8 9 7 4 3 4 4 3 3 3 3 2 1 2 2 2 3 3 4 4 3 3 2 3 4 4 4 4 4 4 4 4
4 2 4 5 5 4 6 7 8 9 9 9 8 8 10 7 7 6 4 3 2 3 3 3 3 3 3 3 3 3 4 4 3 3 3 4 4 4 4 4 4 4 4 5
3 2 1 4 2 4 7 11 11 12 9 11 10 12 9 6 4 4 5 4 4 4 4 4 4 4 4 4 4 4 4 4 3 3 4 4 4 4 4 4 4 4 5 5
3 3 1 4 5 6 9 10 12 7 8 9 12 10 4 4 6 7 6 6 6 5 5 5 5 5 5 5 4 4 4 4 3 4 4 4 4 5 5 5 4 5 5 5
6 5 2 2 4 7 7 1 6 7 7 10 8 6 5 6 4 4 5 6 6 5 5 5 4 4 4 3 3 3 3 3 3 4 5 5 4 5 5 4 5 5 5 5
4 6 3 1 3 9 9 3 5 6 6 7 10 8 5 1 2 4 4 5 5 5 5 4 4 4 3 4 3 2 3 3 4 5 5 5 5 5 5 5 6 5 5 6
3 3 4 3 4 7 6 1 3 3 5 4 6 6 4 4 1 5 3 3 4 4 3 3 3 2 3 4 2 2 4 4 5 6 6 5 5 5 6 6 6 5 5 6
4 3 5 6 7 9 7 2 4 3 6 2 5 5 6 6 6 3 2 2 3 3 3 3 3 3 4 3 2 3 5 6 6 6 6 6 5 6 6 6 5 5 6 6
9 8 8 7 7 10 4 6 7 7 2 2 3 4 5 6 4 3 3 3 3 3 3 2 3 4 4 3 3 5 7 6 5 5 6 6 6 6 5 5 6 5 5 6
9 9 7 10 10 4 4 6 4 3 3 3 4 4 4 5 5 4 4 4 4 4 4 3 3 5 5 4 4 6 7 5 5 5 6 6 6 6 5 5 6 6 5 5
6 4 5 7 9 8 7 7 5 5 5 5 5 5 5 5 5 5 5 4 4 4 4 3 3 5 6 5 5 7 7 5 5 6 7 6 6 7 6 5 5 5 6 6
7 7 5 8 8 7 7 8 8 7 6 5 5 5 6 6 6 6 5 5 5 5 4 4 5 6 7 7 7 7 6 5 6 7 7 7 6 6 7 7 6 7 8 8
7 9 9 10 8 6 6 5 5 6 7 7 6 6 5 6 7 6 6 5 5 5 5 5 6 7 7 7 8 8 6 5 6 7 7 6 6 6 6 7 8 11 12 15
Wind_Direction
20 61 54 347 112 140 136 117 85 318 334 56 18 296 287 271 215 229 234 229 221 233 249 205 180 161 146 152 160 165 159 165 128 109 123 113 304 317 3 1 6 11 16 35
45 38 323 327 77 81 87 93 64 353 15 49 2 305 287 258 228 221 224 230 223 222 228 211 184 176 182 191 193 190 197 189 166 157 160 157 160 257 257 323 351 356 359 10
96 301 321 81 66 69 42 114 154 228 358 34 1 327 312 303 285 252 239 232 228 213 214 213 211 211 209 214 209 211 211 204 187 168 129 105 55 359 335 320 308 321 327 341
50 346 49 72 47 67 53 335 126 78 62 346 39 300 297 306 307 284 266 247 233 226 216 210 212 219 224 230 223 221 212 212 202 174 171 181 203 233 245 248 263 298 314 307
18 4 43 58 7 67 156 29 64 59 94 20 22 149 288 318 286 279 272 256 241 228 216 218 218 222 225 218 216 222 227 237 220 192 190 197 222 230 250 260 275 283 287 288
26 358 47 88 350 78 145 55 49 47 65 340 260 176 278 255 241 271 270 254 232 200 178 196 202 179 197 157 219 237 248 264 245 210 201 206 220 234 252 263 267 276 275 272
10 4 2 16 44 22 57 73 31 6 5 260 281 212 252 261 261 241 231 228 215 149 128 125 129 151 145 340 294 264 256 274 263 221 218 219 220 224 236 248 252 262 268 264
66 327 341 7 79 136 60 113 147 196 234 283 311 245 259 276 289 261 222 198 164 149 145 155 186 202 265 308 315 301 275 280 289 253 242 234 226 223 237 242 243 248 249 254
131 255 327 354 352 119 99 100 146 131 152 288 282 287 303 285 326 86 123 134 171 187 175 126 31 33 314 319 291 270 278 297 304 283 259 250 240 233 245 253 247 250 250 254
134 153 316 321 61 43 100 140 96 117 154 278 296 282 257 248 228 211 189 187 205 198 173 28 30 5 342 300 287 318 284 284 294 296 275 270 258 246 246 247 250 252 254 252
104 132 321 2 169 181 110 104 106 110 151 172 275 278 233 219 210 207 216 215 210 204 207 211 325 345 346 348 356 354 337 323 313 313 312 300 290 279 263 254 256 255 254 249
105 116 261 263 258 199 190 178 153 158 223 190 220 270 291 237 228 211 217 224 221 208 202 197 203 14 5 350 337 327 318 308 300 304 307 294 292 294 283 276 273 264 258 255
136 109 25 351 350 2 254 201 174 137 131 173 200 267 317 353 225 221 220 229 226 217 200 182 143 331 316 314 316 313 306 298 301 306 305 302 300 296 287 283 280 270 263 265
115 138 184 211 234 201 239 223 182 159 184 220 230 257 289 283 259 249 240 236 222 217 208 210 237 262 281 292 294 297 298 295 302 306 301 292 287 282 280 284 283 278 269 266
110 196 237 253 264 237 239 235 208 206 208 215 239 240 256 247 241 241 232 222 209 222 224 229 244 258 273 284 289 292 293 297 296 294 288 279 282 285 287 289 288 288 281 270
109 170 287 293 289 264 263 248 228 227 228 237 257 268 254 243 226 232 226 211 213 228 237 247 253 254 262 269 277 287 290 295 292 280 277 279 284 289 289 288 291 292 287 280
151 148 145 282 312 324 272 240 211 210 210 201 230 247 246 222 227 228 224 213 217 231 243 250 251 249 255 256 256 265 277 289 291 283 284 285 285 287 286 288 291 286 283 280
150 144 160 294 354 257 250 211 187 209 238 218 233 247 235 230 241 242 216 207 223 234 241 247 247 251 254 253 260 267 277 284 286 285 286 285 283 284 287 287 283 281 279 277
162 152 158 179 268 279 290 246 176 194 267 222 224 242 240 220 7 303 232 204 217 226 232 238 241 242 247 258 262 271 282 284 283 281 281 283 281 282 286 284 282 280 279 280
87 131 159 179 230 252 259 209 169 132 283 241 200 214 193 134 196 267 245 211 232 242 244 244 249 250 258 269 265 264 275 279 275 274 277 281 279 275 275 276 279 278 273 275
142 169 198 210 238 265 256 209 132 183 256 232 188 192 175 189 216 243 232 234 234 241 250 254 256 258 259 261 251 264 271 269 269 275 282 283 277 271 271 275 274 277 280 283
180 180 195 186 217 254 215 148 185 220 244 182 190 192 198 221 244 250 241 247 253 258 262 259 262 272 273 257 246 265 270 270 276 280 282 281 279 276 278 273 277 274 271 280
203 197 192 200 219 250 190 205 224 197 208 214 209 221 212 227 244 248 251 252 259 258 262 261 258 276 282 267 244 260 272 279 283 282 281 282 283 278 271 266 273 279 271 271
237 201 203 246 261 257 250 246 244 220 221 230 224 222 208 225 240 247 255 258 262 263 261 260 265 273 279 276 265 259 271 276 274 277 281 281 281 284 278 267 260 263 267 268
220 180 214 250 268 283 263 235 233 232 227 232 232 222 218 220 235 238 247 253 255 260 264 255 255 263 270 276 276 275 271 268 271 274 276 277 273 273 278 273 260 258 254 252
199 195 205 240 235 221 251 242 221 219 229 227 227 235 228 217 230 236 242 248 250 256 260 263 262 264 271 274 275 276 270 258 261 275 275 273 273 273 272 278 285 267 259 268
Height
1500 1504 1509 1509 1507 1507 1509 1511 1512 1512 1510 1509 1510 1509 1505 1505 1505 1506 1506 1507 1508 1510 1512 1514 1515 1517 1518 1519 1521 1521 1522 1523 1524 1524 1524 1524 1525 1525 1525 1524 1524 1524 1523 1522
1505 1509 1509 1507 1506 1507 1509 1511 1514 1513 1511 1511 1511 1509 1505 1504 1504 1504 1505 1505 1506 1508 1510 1511 1513 1515 1516 1518 1519 1520 1521 1522 1522 1523 1523 1523 1523 1523 1523 1523 1523 1522 1522 1521
1509 1512 1508 1508 1509 1509 1512 1513 1514 1514 1512 1512 1512 1510 1506 1503 1503 1503 1503 1504 1505 1506 1508 1510 1511 1513 1514 1516 1517 1518 1519 1520 1521 1521 1521 1521 1521 1521 1521 1521 1521 1520 1520 1519
1512 1511 1510 1510 1512 1511 1514 1513 1513 1513 1516 1520 1518 1521 1509 1506 1504 1503 1502 1502 1503 1504 1506 1508 1509 1511 1512 1514 1515 1517 1518 1518 1519 1519 1519 1519 1519 1519 1519 1518 1518 1518 1517 1516
1515 1513 1512 1513 1514 1513 1515 1514 1515 1516 1518 1522 1522 1524 1516 1507 1504 1502 1501 1501 1502 1503 1505 1506 1508 1509 1511 1512 1513 1515 1516 1516 1516 1516 1517 1517 1516 1517 1516 1516 1515 1515 1514 1513
1515 1514 1514 1514 1514 1514 1514 1516 1517 1522 1523 1524 1521 1524 1517 1510 1503 1501 1500 1500 1501 1502 1504 1505 1507 1508 1509 1511 1512 1512 1513 1513 1514 1514 1514 1514 1514 1514 1513 1513 1512 1512 1511 1511
1516 1516 1515 1514 1515 1515 1516 1521 1529 1526 1532 1526 1523 1523 1516 1504 1501 1500 1499 1499 1501 1502 1503 1505 1506 1507 1508 1509 1510 1510 1511 1511 1511 1511 1511 1511 1511 1511 1510 1509 1509 1508 1508 1507
1519 1522 1518 1516 1517 1517 1518 1520 1528 1527 1529 1528 1525 1522 1509 1501 1499 1498 1498 1499 1500 1501 1503 1504 1506 1506 1507 1508 1508 1509 1509 1509 1508 1508 1508 1508 1508 1507 1507 1506 1505 1505 1504 1504
1520 1522 1519 1517 1516 1517 1519 1524 1525 1532 1532 1531 1524 1518 1506 1499 1499 1498 1498 1498 1499 1501 1502 1504 1505 1506 1506 1507 1507 1507 1507 1506 1506 1506 1505 1505 1505 1504 1503 1503 1502 1502 1501 1500
1517 1523 1520 1518 1517 1518 1519 1524 1529 1529 1526 1525 1520 1517 1510 1500 1499 1499 1498 1498 1499 1501 1502 1503 1504 1505 1505 1505 1506 1505 1505 1504 1504 1503 1502 1502 1502 1501 1500 1500 1499 1498 1497 1496
1517 1522 1523 1520 1519 1519 1521 1524 1527 1532 1531 1529 1525 1514 1501 1498 1497 1498 1497 1497 1499 1500 1501 1502 1503 1504 1504 1504 1504 1503 1503 1502 1502 1500 1499 1499 1498 1498 1497 1496 1495 1494 1494 1493
1518 1524 1526 1521 1519 1519 1519 1521 1525 1526 1528 1534 1532 1517 1496 1496 1495 1495 1496 1497 1498 1499 1500 1501 1502 1502 1502 1502 1502 1502 1501 1500 1499 1498 1497 1496 1495 1494 1494 1493 1492 1491 1490 1489
1518 1522 1524 1520 1523 1522 1520 1520 1522 1526 1531 1537 1533 1513 1497 1495 1494 1495 1495 1496 1497 1498 1499 1500 1500 1501 1501 1501 1500 1500 1499 1498 1496 1495 1494 1493 1492 1491 1490 1489 1488 1487 1485 1484
1516 1521 1523 1519 1515 1518 1519 1518 1521 1523 1528 1529 1522 1508 1498 1495 1494 1494 1494 1494 1495 1496 1497 1498 1499 1499 1499 1498 1498 1497 1496 1495 1493 1492 1491 1490 1489 1488 1486 1485 1484 1482 1481 1480
1516 1521 1520 1519 1518 1518 1516 1515 1517 1517 1515 1516 1508 1506 1495 1494 1493 1492 1492 1493 1494 1494 1495 1496 1496 1496 1496 1496 1495 1494 1493 1491 1490 1489 1488 1486 1485 1484 1483 1481 1480 1478 1477 1475
1517 1520 1520 1519 1516 1517 1515 1509 1509 1509 1508 1506 1503 1498 1489 1489 1490 1490 1490 1491 1491 1492 1493 1493 1493 1493 1493 1492 1491 1490 1489 1488 1487 1486 1484 1483 1482 1480 1479 1477 1476 1474 1472 1471
1519 1520 1521 1520 1518 1512 1508 1497 1498 1500 1497 1497 1496 1490 1486 1487 1487 1486 1487 1488 1488 1489 1490 1490 1490 1490 1489 1489 1488 1487 1486 1485 1483 1482 1481 1479 1478 1476 1474 1473 1471 1469 1467 1466
1517 1520 1523 1523 1518 1512 1492 1488 1489 1492 1490 1489 1486 1484 1484 1484 1484 1484 1485 1485 1486 1486 1487 1487 1487 1487 1486 1485 1484 1483 1482 1481 1480 1479 1477 1475 1473 1471 1470 1468 1466 1464 1462 1460
1512 1516 1522 1523 1521 1508 1492 1486 1487 1489 1486 1482 1482 1481 1482 1482 1483 1482 1482 1483 1483 1484 1484 1484 1484 1483 1483 1482 1481 1480 1479 1477 1476 1475 1473 1471 1469 1467 1465 1463 1461 1459 1457 1454
1514 1515 1519 1520 1515 1503 1485 1483 1483 1486 1484 1477 1477 1479 1480 1482 1486 1482 1480 1480 1481 1481 1481 1481 1480 1480 1479 1478 1477 1476 1475 1473 1472 1470 1469 1467 1465 1462 1460 1458 1456 1454 1451 1449
1515 1516 1516 1516 1513 1498 1484 1482 1483 1489 1481 1476 1475 1476 1478 1479 1480 1479 1478 1478 1479 1478 1478 1477 1477 1476 1475 1474 1473 1472 1470 1469 1467 1466 1464 1462 1460 1458 1455 1453 1451 1449 1446 1444
1505 1510 1511 1510 1510 1495 1479 1480 1482 1478 1474 1474 1474 1475 1475 1476 1476 1476 1476 1476 1476 1475 1474 1474 1473 1472 1472 1470 1469 1467 1466 1465 1463 1461 1459 1457 1455 1453 1450 1448 1445 1443 1441 1438
1496 1493 1493 1492 1484 1476 1474 1474 1473 1473 1473 1473 1473 1473 1474 1474 1473 1473 1473 1472 1472 1472 1471 1470 1469 1468 1467 1467 1465 1463 1462 1460 1458 1456 1454 1452 1450 1448 1445 1442 1440 1437 1435 1432
1488 1486 1487 1486 1476 1472 1471 1471 1471 1471 1471 1470 1471 1471 1471 1470 1470 1470 1470 1469 1468 1468 1467 1466 1465 1464 1463 1462 1461 1459 1457 1455 1453 1451 1449 1447 1444 1442 1439 1437 1434 1431 1428 1426
1479 1482 1482 1478 1470 1468 1465 1465 1466 1467 1467 1467 1467 1467 1467 1466 1466 1466 1466 1465 1465 1464 1463 1462 1461 1460 1459 1457 1456 1454 1452 1450 1447 1445 1443 1441 1438 1435 1433 1430 1428 1425 1422 1420
1471 1472 1473 1467 1463 1464 1461 1462 1462 1462 1462 1462 1462 1462 1462 1462 1462 1462 1461 1461 1460 1460 1459 1457 1456 1455 1454 1452 1451 1449 1447 1445 1442 1439 1437 1434 1432 1429 1426 1423 1420 1418 1416 1413